This is the latest recevied weather packets stored in our database for station/object NR5ON-13. If no packets are shown the sender has not sent any weather packets the latest 1 day(s).
| Time | Temp. | Humidity | Pressure | Rain* | Wind** | Luminosity | Snow |
|---|---|---|---|---|---|---|---|
| 1777978408 | 10.56° C | 40% | 1014 hPa | 0 mm | 0 m/s | - | - |
| 1777978118 | 10.56° C | 39% | 1014 hPa | 0 mm | 0 m/s | - | - |
| 1777977805 | 10.56° C | 38% | 1014 hPa | 0 mm | 0 m/s | - | - |
| 1777977510 | 11.11° C | 38% | 1014.1 hPa | 0 mm | 0 m/s | - | - |
| 1777977216 | 11.11° C | 38% | 1014 hPa | 0 mm | 0 m/s | - | - |
| 1777976922 | 11.11° C | 37% | 1013.8 hPa | 0 mm | 0.45 m/s, 254° | - | - |
| 1777976607 | 11.11° C | 37% | 1013.9 hPa | 0 mm | 0.89 m/s, 254° | - | - |
| 1777976316 | 11.11° C | 36% | 1013.8 hPa | 0 mm | 0.45 m/s, 235° | - | - |
| 1777976006 | 11.11° C | 36% | 1013.8 hPa | 0 mm | 0 m/s | - | - |
| 1777975711 | 11.67° C | 36% | 1013.8 hPa | 0 mm | 0 m/s | - | - |
| 1777975417 | 11.67° C | 35% | 1013.7 hPa | 0 mm | 0.45 m/s, 250° | - | - |
| 1777975122 | 11.67° C | 35% | 1013.8 hPa | 0 mm | 0.89 m/s, 253° | - | - |
| 1777974808 | 11.67° C | 36% | 1013.8 hPa | 0 mm | 0.89 m/s, 226° | - | - |
| 1777974512 | 11.67° C | 35% | 1013.9 hPa | 0 mm | 0.89 m/s, 255° | - | - |
| 1777974218 | 11.67° C | 36% | 1013.8 hPa | 0 mm | 0.45 m/s, 258° | - | - |
| 1777973923 | 11.67° C | 36% | 1013.8 hPa | 0 mm | 0.45 m/s, 298° | - | - |
| 1777973609 | 11.67° C | 38% | 1013.8 hPa | 0 mm | 0.45 m/s, 269° | - | - |
| 1777973314 | 11.67° C | 38% | 1013.8 hPa | 0 mm | 0 m/s | - | - |
| 1777973007 | 11.67° C | 37% | 1013.8 hPa | 0 mm | 0.45 m/s, 279° | - | - |
| 1777972714 | 11.67° C | 37% | 1013.9 hPa | 0 mm | 0.45 m/s, 308° | - | - |
| 1777972420 | 11.67° C | 36% | 1013.9 hPa | 0 mm | 0 m/s | - | - |
| 1777972107 | 11.67° C | 36% | 1014.1 hPa | 0 mm | 0.89 m/s, 308° | - | - |
| 1777971817 | 11.67° C | 35% | 1014.1 hPa | 0 mm | 0.45 m/s, 317° | - | - |
| 1777971502 | 11.67° C | 35% | 1014 hPa | 0 mm | 0 m/s | - | - |
| 1777971211 | 11.67° C | 35% | 1014.1 hPa | 0 mm | 0 m/s | - | - |
* Rain latest hour (hover to see other rain measurements)
** Current wind speed in m/s (hover to see current wind gust speed)